Showing default

KANOPUS-V 6, 43877

Orbit data source: Space-Track

KANOPUS-V 6, 43877 is a payload satellite owned by VNIIEM (CIS) in SSO that was launched on Thu, 27 Dec 2018 UTC via a SOYUZ-2-1A launch vehicle from the Vostochny Cosmodrome (VOSTO). Payload-class satellites include a variety of spacecraft equipped with specific instruments for various scientific and technological missions. These include communications satellites like Starlink; space stations such as the ISS; scientific satellites like the Hubble; Earth observation satellites from companies like Planet Labs, Umbra, and HawkEye 360; GPS; miniature CubeSats for education and research; and military/defense satellites.

Loading next visibility...
Identifier
43877, 2018-111B
Orbit
SSO
Country
Flag of CISCIS
Related business
Manufacturer
VNIIEM
Mission
Operational Civil Imaging
Bus & Motor
KANOPUS, Unknown motor
Mass
473 kg wet, 473 kg dry
Launch date (UTC)
2018-12-27 (8 years ago)
Launch vehicle
SOYUZ-2-1A
Launch site
Vostochny Cosmodrome (VOSTO)
Object type
Payload
Rocket body
Debris
Shape & HBR
Box + 2 Pan, 3.0 m
Radar Cross Section
1.665 m², Large (>1 m²)

Expand to show TLE details & history
Last TLE update: 11 hours ago

TLE from 11 hours ago
0 KANOPUS-V 6
1 43877U 18111B   26255.34569951  .00003014  00000-0  76656-4 0  9995
2 43877  97.3658 173.1315 0001870  89.7862 270.3598 15.40409794428940
Epoch: 2026-09-12T08:17Z
TLE epoch observation values (Epoch: 2026-09-12T08:17:48.437Z)
Latitude
-0.00009°
Longitude
57.32366°
Altitude
448.01 km
Speed
7.643 km/s
True Right ascension
11h 32m 31s
True Declination
0° 00' 00"
Sunlit
Object was in daylight at epoch
Visualization orbit readout
Latitude
Unknown
Longitude
Unknown
Altitude
Unknown
Speed
Unknown
Apparent Right ascension
Unknown
Apparent Declination
Unknown
Sunlit
N/A
Visualization observer readout
Local Sidereal Time
11:47:06
Azimuth
Unknown
Elevation
Unknown
Doppler factor
Unknown
Orbital elements
Apogee altitude
443.111 km
Perigee altitude
440.561 km
Semi-major axis
6,819.973 km
Eccentricity
0.00019
Inclination
97.3658°
RAAN
173.1315°
Arg. of periapsis
89.7862°
True anomaly
270.33837°
Mean anomaly
270.3598°
Eccentric anomaly
270.34909°
Mean motion
3.85362 °/min
Orbital period
93.42 mins
BSTAR
0.000076656
Loading maneuver chart data...
Computing Atmospheric mass density...

Documentation

Showing up to 5 results
|